Regional Weather Roundup
Issued by NWS

Home | Current Version | Previous Version | Text Only | Print | Product List | Glossary Off
Versions: 1 2 3 4 5 6 7 8 9 10 11 12 13 14 15 16 17 18 19 20 21 22 23 24 25 26 27 28 29 30 31 32 33 34 35 36 37 38 39 40 41 42 43 44 45 46 47 48 49 50

498
ASUS45 KBOI 271910
RWRID

IDAHO REGIONAL WEATHER ROUNDUP
NATIONAL WEATHER SERVICE BOISE ID
1200 PM MST MON FEB 27 2017

NOTE: "FAIR" INDICATES FEW OR NO CLOUDS BELOW 12000 FEET
WITH NO SIGNIFICANT WEATHER AND/OR OBSTRUCTIONS TO VISIBILITY

IDZ012-014-272000-
SOUTHWEST IDAHO


CITY           SKY/WX    TMP DP  RH WIND       PRES   REMARKS
BOISE          CLOUDY    35  22  58 N7        29.77R WCI  29
CALDWELL       CLOUDY    38  22  52 W15       29.78R WCI  29
MOUNTAIN HOME  FLURRIES  36  20  53 NW12      29.76S WCI  27
$$

IDZ016-017-272000-
SOUTHCENTRAL IDAHO


CITY           SKY/WX    TMP DP  RH WIND       PRES   REMARKS
BURLEY         MIX PCPN  29  22  75 W13G25    29.70R WCI  19
JEROME           N/A    N/A N/A N/A MISG      29.73R
TWIN FALLS     PTSUNNY   27  19  72 W20       29.73R WCI  13
$$

IDZ019>023-272000-
SOUTHEAST IDAHO


CITY           SKY/WX    TMP DP  RH WIND       PRES   REMARKS
IDAHO FALLS    LGT SNOW  22  20  92 N7        29.62F FOG     WCI  13
POCATELLO      LGT SNOW  25  21  85 W7        29.66R WCI  17
REXBURG        FLURRIES  24  21  88 CALM      29.61S
$$

IDZ006-010-011-018-031-032-272000-
CENTRAL IDAHO MOUNTAINS


CITY           SKY/WX    TMP DP  RH WIND       PRES   REMARKS
MCCALL         CLOUDY    24  16  71 S13       29.59R WCI  12
STANLEY          N/A     17   8  67 CALM      29.57R
SALMON         CLOUDY    28   9  43 N5        29.60S WCI  23
CHALLIS        CLOUDY    22   8  55 CALM      29.59F
$$

IDZ002-004-006-007-026-272000-
NORTHERN IDAHO


CITY           SKY/WX    TMP DP  RH WIND       PRES   REMARKS
LEWISTON       CLOUDY    34  31  88 N3        29.73S
LOWELL           N/A     36  31  82 CALM      29.75R
COEUR D`ALENE  SNOW      33  28  81 SW5       29.66R VSB 1/2 WCI  29
MULLAN PASS    LGT SNOW  20  14  77 VRB7      29.46S WCI  11
$$




USA.gov is the U.S. government's official web portal to all federal, state and local government web resources and services.